Barnwell, SC

1:43 AM EDT on September 29, 2016 (GMT -0400)
Barnwell County

Weather History for KBNL - December, 2012

Change the Weather History Date:

Friday, December 14, 2012

  Actual Average (KOGB) Record (KOGB)
Temperature  
Mean Temperature 46 °F 48 °F  
Max Temperature 60 °F 59 °F 78 °F (1956)
Min Temperature 32 °F 37 °F 10 °F (1962)
Degree Days  
Heating Degree Days 19 17  
Month to date heating degree days 218  
Since 1 July heating degree days 587  
Cooling Degree Days 0 0  
Month to date cooling degree days 0  
Year to date cooling degree days 2102  
Moisture  
Dew Point 37 °F    
Average Humidity 81    
Maximum Humidity 100    
Minimum Humidity 42    
Precipitation  
Precipitation 0.00 in 0.12 in 1.98 in (1953)
Month to date precipitation 1.56  
Year to date precipitation 44.97  
Sea Level Pressure  
Sea Level Pressure 30.31 in    
Wind  
Wind Speed 0 mph (NNE)    
Max Wind Speed 4 mph    
Max Gust Speed -    
Visibility 10 miles    
Events      
T = Trace of Precipitation, MM = Missing Value Source: NWS Daily Summary

Daily Weather History Graph

Daily Weather History Graph

Search for Another Location

Airport or City:

Trip Planner

Search our weather history database for the weather conditions in past years. The results will help you decide how hot, cold, wet, or windy it might be!

Date:

Astronomy

Dec. 14, 2012 Rise Set
Actual Time 7:21 AM EST 5:19 PM EST
Civil Twilight 6:53 AM EST 5:47 PM EST
Nautical Twilight 6:22 AM EST 6:18 PM EST
Astronomical Twilight 5:52 AM EST 6:48 PM EST
Moon 8:27 AM EST (12/14) 7:07 PM EST (12/14)
Length of Visible Light 10h 53m
Length of Day
9h 58m
Waxing Crescent, 3% of the Moon is Illuminated
Dec 14
Waxing Crescent
Dec 20
First Quarter
Dec 28
Full
Jan 4
Last Quarter
Jan 11
New

Hourly Weather History & Observations

Time (EST) Temp. Windchill Dew Point Humidity Pressure Visibility Wind Dir Wind Speed Gust Speed Precip Events Conditions
12:15 AM 39.2 °F - 37.4 °F 93% 30.35 in 10.0 mi Calm Calm - N/A   Clear
12:35 AM 37.4 °F - 37.4 °F 100% 30.34 in 10.0 mi Calm Calm - N/A   Clear
12:55 AM 35.6 °F - 35.6 °F 100% 30.35 in 10.0 mi Calm Calm - N/A   Clear
1:15 AM 35.6 °F - 35.6 °F 100% 30.35 in 10.0 mi Calm Calm - N/A   Clear
1:35 AM 35.6 °F - 35.6 °F 100% 30.34 in 7.0 mi Calm Calm - N/A   Clear
1:55 AM 35.6 °F - 35.6 °F 100% 30.33 in 10.0 mi Calm Calm - N/A   Clear
2:15 AM 39.2 °F 37.0 °F 37.4 °F 93% 30.32 in 10.0 mi NNE 3.5 mph - N/A   Clear
2:35 AM 37.4 °F - 35.6 °F 93% 30.32 in 10.0 mi Calm Calm - N/A   Clear
2:55 AM 35.6 °F - 35.6 °F 100% 30.32 in 10.0 mi Calm Calm - N/A   Clear
3:15 AM 35.6 °F - 33.8 °F 93% 30.32 in 10.0 mi Calm Calm - N/A   Clear
3:35 AM 33.8 °F - 33.8 °F 100% 30.32 in 8.0 mi Calm Calm - N/A   Clear
3:55 AM 33.8 °F - 33.8 °F 100% 30.32 in 7.0 mi Calm Calm - N/A   Clear
4:15 AM 33.8 °F - 32.0 °F 93% 30.32 in 10.0 mi Calm Calm - N/A   Clear
4:55 AM 33.8 °F - 33.8 °F 100% 30.33 in 9.0 mi Calm Calm - N/A   Clear
5:15 AM 33.8 °F - 32.0 °F 93% 30.32 in 8.0 mi Calm Calm - N/A   Clear
5:35 AM 33.8 °F - 33.8 °F 100% 30.33 in 8.0 mi Calm Calm - N/A   Clear
5:55 AM 33.8 °F - 32.0 °F 93% 30.34 in 9.0 mi Calm Calm - N/A   Clear
6:15 AM 32.0 °F - 32.0 °F 100% 30.35 in 6.0 mi Calm Calm - N/A   Clear
6:35 AM 32.0 °F - 32.0 °F 100% 30.36 in 8.0 mi Calm Calm - N/A   Clear
6:55 AM 35.6 °F - 33.8 °F 93% 30.36 in 10.0 mi Calm Calm - N/A   Clear
7:15 AM 33.8 °F - 33.8 °F 100% 30.36 in 10.0 mi Calm Calm - N/A   Clear
7:35 AM 35.6 °F - 33.8 °F 93% 30.36 in 5.0 mi Calm Calm - N/A   Clear
7:55 AM 35.6 °F - 35.6 °F 100% 30.37 in 9.0 mi Calm Calm - N/A   Clear
8:15 AM 37.4 °F - 35.6 °F 93% 30.38 in 10.0 mi Calm Calm - N/A   Clear
8:35 AM 39.2 °F - 35.6 °F 87% 30.39 in 10.0 mi Calm Calm - N/A   Clear
8:55 AM 41.0 °F - 37.4 °F 87% 30.39 in 10.0 mi Calm Calm - N/A   Clear
9:35 AM 42.8 °F - 37.4 °F 81% 30.40 in 10.0 mi Calm Calm - N/A   Clear
9:55 AM 44.6 °F - 37.4 °F 76% 30.40 in 10.0 mi Calm Calm - N/A   Clear
10:15 AM 46.4 °F - 39.2 °F 76% 30.41 in 10.0 mi Calm Calm - N/A   Clear
10:35 AM 48.2 °F - 39.2 °F 71% 30.40 in 10.0 mi Calm Calm - N/A   Clear
10:55 AM 51.8 °F - 37.4 °F 58% 30.39 in 10.0 mi Calm Calm - N/A   Clear
11:15 AM 51.8 °F - 39.2 °F 62% 30.39 in 10.0 mi Calm Calm - N/A   Clear
11:35 AM 51.8 °F - 37.4 °F 58% 30.38 in 10.0 mi Calm Calm - N/A   Clear
11:55 AM 53.6 °F - 37.4 °F 54% 30.37 in 10.0 mi Calm Calm - N/A   Clear
12:15 PM 53.6 °F - 37.4 °F 54% 30.36 in 10.0 mi Calm Calm - N/A   Clear
12:35 PM 55.4 °F - 37.4 °F 51% 30.34 in 10.0 mi Calm Calm - N/A   Clear
12:55 PM 57.2 °F - 35.6 °F 44% 30.33 in 10.0 mi Calm Calm - N/A   Clear
1:15 PM 55.4 °F - 37.4 °F 51% 30.31 in 10.0 mi Calm Calm - N/A   Clear
1:35 PM 57.2 °F - 37.4 °F 48% 30.29 in 10.0 mi Calm Calm - N/A   Clear
1:55 PM 57.2 °F - 37.4 °F 48% 30.28 in 10.0 mi Calm Calm - N/A   Clear
2:15 PM 59.0 °F - 37.4 °F 45% 30.27 in 10.0 mi Calm Calm - N/A   Clear
2:35 PM 59.0 °F - 37.4 °F 45% 30.26 in 10.0 mi Calm Calm - N/A   Clear
2:55 PM 60.8 °F - 37.4 °F 42% 30.25 in 10.0 mi Calm Calm - N/A   Clear
3:15 PM 60.8 °F - 37.4 °F 42% 30.25 in 10.0 mi Calm Calm - N/A   Clear
3:35 PM 60.8 °F - 37.4 °F 42% 30.25 in 10.0 mi Calm Calm - N/A   Clear
3:55 PM 60.8 °F - 37.4 °F 42% 30.24 in 10.0 mi Calm Calm - N/A   Clear
4:55 PM 57.2 °F - 39.2 °F 51% 30.23 in 10.0 mi Calm Calm - N/A   Clear
5:15 PM 57.2 °F - 39.2 °F 51% 30.23 in 10.0 mi Calm Calm - N/A   Clear
5:35 PM 51.8 °F - 41.0 °F 67% 30.24 in 10.0 mi Calm Calm - N/A   Clear
5:55 PM 48.2 °F - 41.0 °F 76% 30.24 in 10.0 mi Calm Calm - N/A   Clear
6:15 PM 46.4 °F - 41.0 °F 81% 30.25 in 10.0 mi Calm Calm - N/A   Clear
6:35 PM 46.4 °F - 41.0 °F 81% 30.25 in 10.0 mi Calm Calm - N/A   Clear
6:55 PM 44.6 °F - 39.2 °F 81% 30.26 in 10.0 mi Calm Calm - N/A   Clear
7:15 PM 42.8 °F - 39.2 °F 87% 30.26 in 10.0 mi Calm Calm - N/A   Clear
7:35 PM 42.8 °F - 39.2 °F 87% 30.25 in 10.0 mi Calm Calm - N/A   Clear
7:55 PM 42.8 °F - 39.2 °F 87% 30.26 in 10.0 mi Calm Calm - N/A   Clear
8:15 PM 41.0 °F - 39.2 °F 93% 30.27 in 10.0 mi Calm Calm - N/A   Clear
8:35 PM 41.0 °F - 39.2 °F 93% 30.26 in 10.0 mi Calm Calm - N/A   Clear
8:55 PM 39.2 °F - 39.2 °F 100% 30.25 in 10.0 mi Calm Calm - N/A   Clear
9:15 PM 39.2 °F - 37.4 °F 93% 30.26 in 10.0 mi Calm Calm - N/A   Clear
9:35 PM 37.4 °F - 37.4 °F 100% 30.26 in 10.0 mi Calm Calm - N/A   Clear
9:55 PM 37.4 °F - 37.4 °F 100% 30.26 in 10.0 mi Calm Calm - N/A   Clear
10:15 PM 37.4 °F - 35.6 °F 93% 30.27 in 10.0 mi Calm Calm - N/A   Clear
10:35 PM 35.6 °F - 35.6 °F 100% 30.27 in 9.0 mi Calm Calm - N/A   Clear
10:55 PM 35.6 °F - 35.6 °F 100% 30.27 in 10.0 mi Calm Calm - N/A   Clear
11:15 PM 35.6 °F - 35.6 °F 100% 30.26 in 10.0 mi Calm Calm - N/A   Clear
11:35 PM 35.6 °F - 35.6 °F 100% 30.25 in 9.0 mi Calm Calm - N/A   Clear
11:55 PM 37.4 °F - 35.6 °F 93% 30.26 in 10.0 mi Calm Calm - N/A   Clear